This demonstration page uses our WeatherBlox Daily Observations layout. Learn more.

Left ArrowRight Arrow

39.01783, -85.05884

Hourly Observations for December 12, 2020

Temp ( °F °C ) Dew Point ( °F °C ) Humidity (%) Winds ( mph kmh ) Pressure ( in mb ) Visibility ( mi km ) Precip ( " mm )
12:52 am 00:52 Cloudy 53 11.7 41 5 64 64 S 10 17 29.89 1012 10 16 N/A
1:52 am 01:52 Cloudy 53 11.7 41 5 64 64 S 12 19 29.86 1011 10 16 N/A
2:52 am 02:52 Cloudy 55 12.8 42 5.6 62 62 S 15 24 29.84 1010 10 16 N/A
3:52 am 03:52 Cloudy with Light Rain 54 12.2 44 6.7 69 69 S 16 26 29.83 1010 10 16 0.00 0.00
4:52 am 04:52 Cloudy with Light Rain 53 11.7 44 6.7 72 72 S 14 22 29.80 1009 10 16 0.00 0.00
5:52 am 05:52 Cloudy with Light Rain 54 12.2 45 7.2 72 72 S 13 20 29.78 1009 10 16 0.00 0.00
6:52 am 06:52 Cloudy 54 12.2 45 7.2 72 72 S 15 24 29.78 1009 10 16 0.00 0.00
7:52 am 07:52 Cloudy 55 12.8 46 7.8 72 72 S 16 26 29.77 1008 10 16 0.00 0.00
8:17 am 08:17 Cloudy with Rain 54 12.2 47 8.3 77 77 S 15 24 29.78 1009 3 5 0.01 0.25
8:52 am 08:52 Cloudy with Light Rain 53 11.7 49 9.4 86 86 S 14 22 29.76 1008 7 11 0.04 1.02
9:52 am 09:52 Cloudy with Light Rain 54 12.2 50 10 87 87 S 16 26 29.78 1009 7 11 0.00 0.00
10:52 am 10:52 Mostly Cloudy 56 13.3 52 11.1 87 87 SSW 15 24 29.78 1008 10 16 0.00 0.00
11:52 am 11:52 Mostly Cloudy 59 15 53 11.7 81 81 SSW 14 22 29.75 1008 10 16 N/A
12:52 pm 12:52 Cloudy with Light Rain 57 13.9 51 10.6 81 81 SW 13 20 29.74 1007 3 5 0.01 0.25
1:52 pm 13:52 Partly Cloudy 61 16.1 50 10 67 67 SW 15 24 29.72 1007 10 16 0.01 0.25
2:52 pm 14:52 Partly Cloudy 62 16.7 43 6.1 50 50 WSW 21 33 29.72 1006 10 16 N/A
3:52 pm 15:52 Mostly Cloudy 60 15.6 45 7.2 58 58 WSW 16 26 29.74 1007 10 16 N/A
4:52 pm 16:52 Mostly Cloudy 54 12.2 44 6.7 69 69 WNW 17 28 29.78 1009 10 16 N/A
5:52 pm 17:52 Mostly Cloudy 49 9.4 41 5 74 74 W 14 22 29.83 1010 10 16 N/A
6:52 pm 18:52 Mostly Cloudy 47 8.3 37 2.8 69 69 W 15 24 29.87 1011 10 16 N/A
7:52 pm 19:52 Mostly Cloudy 45 7.2 36 2.2 71 71 W 10 17 29.90 1013 10 16 N/A
8:52 pm 20:52 Mostly Cloudy 44 6.7 35 1.7 71 71 W 12 19 29.93 1014 10 16 N/A
9:52 pm 21:52 Mostly Cloudy 44 6.7 34 1.1 68 68 W 13 20 29.95 1014 10 16 N/A
10:43 pm 22:43 Cloudy 43 6.1 34 1.1 71 71 WSW 10 17 29.99 1016 10 16 N/A
10:52 pm 22:52 Cloudy 43 6.1 34 1.1 71 71 WSW 10 17 29.97 1015 10 16 N/A
11:15 pm 23:15 Cloudy 43 6.1 35 1.7 74 74 W 8 13 30.00 1016 10 16 N/A
11:52 pm 23:52 Cloudy 43 6.1 35 1.7 74 74 WSW 7 11 29.98 1015 10 16 N/A

Powered by AerisWeather